Location: Béaulencourt
(50.0796°N, 2.8795°E)
Time: 04:59:54
(UTC+00:00)

ARIANE 6 FM1 Upper Stage - Pass Details

Date: 16 March 2026
Orbit: 525 x 604 km, 62.0° (Epoch: 17 April)

Event Time Altitude Azimuth Distance (km) Brightness Sun altitude
Exits shadow 02:46:48 22° 91° (E) 1,202 4.8 -29.8°
Drops below altitude 10° 02:48:52 10° 65° (ENE) 1,796 6.1 -29.6°
Sets 02:51:16 0° 53° (NE) 2,682 7.4 -29.3°
